Location: American Medical Response
(33.3472°N, 96.5511°W)
Time: 12:25:28
(UTC+00:00)

Meteor 2-6 Rocket - Pass Details

Date: 08 December 2021
Orbit: 805 x 915 km, 81.3° (Epoch: 28 January)

Event Time Altitude Azimuth Distance (km) Brightness Sun altitude
Rises 23:41:30 0° 174° (S) 3,483 7.7 -5.1°
Reaches altitude 10° 23:44:00 10° 170° (S) 2,532 6.9 -5.6°
Maximum altitude 23:49:36 55° 94° (E) 1,034 4.4 -6.7°
Drops below altitude 10° 23:55:04 10° 18° (NNE) 2,474 6.3 -7.7°
Sets 23:57:29 0° 14° (NNE) 3,396 7.0 -8.2°
